BKPR

Pristina

Airport
ICAO code
BKPR
Summary
ICAO Region
EUR
ICAO Territory
Location

Slatina, Pristina,

Coordinates
42° 34' 22" N , 21° 2' 9" E
KCC
Metar
BKPR 150530Z 08003KT CAVOK 10/07 Q1020 NOSIG

Description

Pristina International Airport is an international airport located 15 km southwest of Pristina, Kosovo. It is co-located with Slatina Air Base.

Climatology

Humid “subtropical” climate (Köppen climate classification Cfa) - characterized by hot, humid summers and cool winters. Significant amounts of precipitation occur in all seasons in most areas. Winter rainfall (and sometimes snowfall) is associated with large storms that the westerlies steer from west to east. Most summer rainfall occurs during thunderstorms.

Runways

Designator Length Width Surface Rops
17/35 2489 45 ASP Yes/Yes

SKYbrary Partners:

Safety knowledge contributed by: